Find Starlink 31496

NORAD ID: 59211 Int'l Des: 2024-046 Owner: SPXS Country: US Constellation: starlink operational
LEOCIRCULAR

リアルタイム位置

3D地球を読み込み中...

Starlink 31496について

説明を読み込み中...

次回通過

Passes for default location (London). Set your location on the main map for personalized predictions.

高度履歴

Loading altitude history...

軌道要素

1 59211U 24046L 26121.36947442 -.00000063 00000-0 10000-4 0 9990
2 59211 53.1608 257.9688 0001330 113.8978 246.2162 15.30198671121280
Epoch: May 1, 2026 • Age: 10 hours

現在のステータス

高度 478.6 km
速度 7.63 km/s
衛星直下点 41.27°N, 159.55°E
打ち上げ日 Mar 11, 2024
運用期間 2.1 years
タイプ internet

技術仕様

分類 Payload
質量 730.00 kg
乾燥質量 700.00 kg
総質量 730.00 kg
長さ 0.30 m
直径 4.10 m
スパン 29.00 m
形状 Box + pan
製造者 SPXS
バスタイプ Starlink V2M
フェーズステータス In Orbit
所有者/国 SPXS/US

Most Searched